| time (UTC) | temp F | wind direction | speed MPH | gust MPH | rain 1hr in | rain 24hr in | rain mn in | humidity % | barometer mb |
| 20260506134527 | 60 | 0.0 | 0.0 | 0.04 | 1.68 | 0.17 | 71 | 1013.4 | |
| 20260506133525 | 60 | 0.0 | 0.0 | 0.04 | 1.68 | 0.17 | 71 | 1013.4 | |
| 20260506132542 | 60 | 0.0 | 0.0 | 0.08 | 1.68 | 0.17 | 73 | 1013.4 | |
| 20260506131520 | 59 | 0.0 | 1.0 | 0.08 | 1.68 | 0.17 | 72 | 1013.4 | |
| 20260506130532 | 59 | 244 | 0.0 | 3.0 | 0.08 | 1.68 | 0.17 | 71 | 1013.4 |
| 20260506125524 | 59 | 241 | 1.0 | 4.0 | 0.08 | 1.68 | 0.17 | 69 | 1013.4 |
| 20260506124548 | 60 | 255 | 3.0 | 9.0 | 0.04 | 1.64 | 0.12 | 67 | 1013.4 |
| 20260506123526 | 61 | 273 | 4.0 | 9.0 | 0.04 | 1.64 | 0.12 | 62 | 1013.4 |
| 20260506122547 | 62 | 296 | 6.0 | 9.0 | 0.00 | 1.60 | 0.08 | 58 | 1013.4 |
| 20260506121521 | 64 | 290 | 5.0 | 8.0 | 0.00 | 1.60 | 0.08 | 55 | 1013.4 |
| 20260506120520 | 65 | 284 | 3.0 | 6.0 | 0.00 | 1.60 | 0.08 | 54 | 1013.4 |
| 20260506115532 | 66 | 259 | 4.0 | 9.0 | 0.00 | 1.60 | 0.08 | 55 | 1013.4 |
| 20260506114530 | 66 | 290 | 1.0 | 5.0 | 0.00 | 1.60 | 0.08 | 55 | 1013.4 |
| 20260506113548 | 66 | 304 | 4.0 | 8.0 | 0.00 | 1.60 | 0.08 | 54 | 1013.4 |
| 20260506112522 | 66 | 206 | 3.0 | 6.0 | 0.00 | 1.60 | 0.08 | 57 | 1013.4 |
| 20260506111524 | 65 | 254 | 6.0 | 11.0 | 0.00 | 1.60 | 0.08 | 56 | 1013.4 |
| 20260506110538 | 65 | 226 | 4.0 | 8.0 | 0.00 | 1.60 | 0.08 | 57 | 1013.4 |
| 20260506105520 | 64 | 192 | 6.0 | 9.0 | 0.00 | 1.60 | 0.08 | 59 | 1013.4 |
| 20260506104532 | 64 | 202 | 6.0 | 11.0 | 0.00 | 1.60 | 0.08 | 60 | 1013.4 |
| 20260506103530 | 64 | 213 | 4.0 | 9.0 | 0.00 | 1.60 | 0.08 | 62 | 1013.4 |
| 20260506102548 | 63 | 201 | 6.0 | 10.0 | 0.00 | 1.60 | 0.08 | 62 | 1013.4 |
| 20260506101602 | 64 | 202 | 4.0 | 7.0 | 0.00 | 1.60 | 0.08 | 64 | 1013.4 |
| 20260506100519 | 64 | 198 | 5.0 | 9.0 | 0.00 | 1.60 | 0.08 | 64 | 1013.4 |
| 20260506095522 | 64 | 222 | 6.0 | 10.0 | 0.00 | 1.60 | 0.08 | 67 | 1013.4 |
| 20260506094520 | 63 | 263 | 4.0 | 7.0 | 0.00 | 1.60 | 0.08 | 69 | 1013.4 |
| 20260506093554 | 62 | 227 | 5.0 | 9.0 | 0.00 | 1.60 | 0.08 | 72 | 1013.4 |
| 20260506092526 | 61 | 190 | 3.0 | 8.0 | 0.00 | 1.60 | 0.08 | 74 | 1013.4 |
| 20260506091529 | 60 | 194 | 3.0 | 9.0 | 0.00 | 1.60 | 0.08 | 75 | 1013.4 |
| 20260506090547 | 60 | 233 | 4.0 | 7.0 | 0.00 | 1.60 | 0.08 | 75 | 1013.4 |
| 20260506085524 | 60 | 203 | 4.0 | 7.0 | 0.00 | 1.60 | 0.08 | 78 | 1013.4 |
| 20260506084522 | 59 | 222 | 3.0 | 6.0 | 0.00 | 1.60 | 0.08 | 79 | 1013.4 |
| 20260506083534 | 59 | 249 | 6.0 | 8.0 | 0.00 | 1.60 | 0.08 | 80 | 1013.4 |
| 20260506082520 | 58 | 202 | 3.0 | 6.0 | 0.00 | 1.60 | 0.08 | 83 | 1013.4 |
| 20260506081530 | 57 | 227 | 2.0 | 5.0 | 0.00 | 1.60 | 0.08 | 85 | 1013.4 |
| 20260506080528 | 57 | 225 | 3.0 | 8.0 | 0.00 | 1.60 | 0.08 | 86 | 1013.4 |
| 20260506073525 | 55 | 250 | 2.0 | 6.0 | 0.00 | 1.60 | 0.08 | 88 | 1013.4 |
| 20260506072541 | 54 | 228 | 2.0 | 4.0 | 0.00 | 1.60 | 0.08 | 88 | 1013.4 |
| 20260506071534 | 53 | 225 | 4.0 | 8.0 | 0.00 | 1.60 | 0.08 | 88 | 1013.4 |
| 20260506070531 | 53 | 251 | 2.0 | 6.0 | 0.00 | 1.60 | 0.08 | 88 | 1013.4 |
| 20260506061520 | 53 | 216 | 1.0 | 3.0 | 0.00 | 1.60 | 0.08 | 89 | 1013.4 |
| 20260506060523 | 53 | 244 | 1.0 | 4.0 | 0.00 | 1.60 | 0.08 | 89 | 1012.4 |
| 20260506050521 | 52 | 221 | 2.0 | 5.0 | 0.00 | 1.60 | 0.08 | 89 | 1012.4 |
| 20260506044551 | 52 | 224 | 2.0 | 5.0 | 0.00 | 1.60 | 0.08 | 89 | 1012.4 |
| 20260506043524 | 52 | 224 | 1.0 | 4.0 | 0.00 | 1.60 | 0.08 | 89 | 1012.4 |
| 20260506042526 | 52 | 223 | 2.0 | 6.0 | 0.00 | 1.60 | 0.08 | 89 | 1012.4 |
| 20260506041524 | 52 | 208 | 1.0 | 5.0 | 0.00 | 1.60 | 0.08 | 89 | 1012.4 |
| 20260506040529 | 52 | 188 | 2.0 | 6.0 | 0.00 | 1.60 | 0.08 | 89 | 1012.4 |
| 20260506035522 | 52 | 199 | 2.0 | 5.0 | 0.00 | 1.60 | 0.08 | 89 | 1012.4 |
| 20260506034529 | 52 | 220 | 2.0 | 5.0 | 0.00 | 1.60 | 0.08 | 89 | 1012.4 |
| 20260506033540 | 52 | 188 | 0.0 | 4.0 | 0.00 | 1.60 | 0.08 | 89 | 1012.4 |
| 20260506032525 | 52 | 206 | 0.0 | 3.0 | 0.00 | 1.60 | 0.08 | 89 | 1012.4 |
| 20260506031527 | 52 | 238 | 3.0 | 5.0 | 0.00 | 1.60 | 0.08 | 89 | 1012.4 |
| 20260506030600 | 53 | 214 | 0.0 | 2.0 | 0.00 | 1.60 | 0.08 | 89 | 1012.4 |
| 20260506025525 | 53 | 237 | 1.0 | 3.0 | 0.00 | 1.60 | 0.08 | 88 | 1012.4 |
| 20260506024521 | 53 | 221 | 2.0 | 4.0 | 0.00 | 1.60 | 0.08 | 88 | 1012.4 |
| 20260506023535 | 53 | 227 | 2.0 | 6.0 | 0.00 | 1.60 | 0.08 | 88 | 1012.4 |
| 20260506022535 | 53 | 221 | 0.0 | 4.0 | 0.00 | 1.60 | 0.08 | 88 | 1012.4 |
| 20260506021531 | 53 | 204 | 1.0 | 6.0 | 0.00 | 1.60 | 0.08 | 88 | 1012.4 |
| 20260506020530 | 53 | 221 | 1.0 | 6.0 | 0.00 | 1.60 | 0.08 | 88 | 1012.4 |
| 20260506015525 | 53 | 229 | 1.0 | 7.0 | 0.00 | 1.60 | 0.08 | 88 | 1012.4 |
| 20260506014523 | 54 | 229 | 3.0 | 6.0 | 0.00 | 1.60 | 0.08 | 88 | 1012.4 |
| 20260506013544 | 54 | 215 | 2.0 | 6.0 | 0.00 | 1.60 | 0.08 | 88 | 1012.4 |
| 20260506012534 | 54 | 219 | 1.0 | 4.0 | 0.00 | 1.60 | 0.08 | 88 | 1012.4 |
| 20260506011543 | 54 | 0.0 | 0.0 | 0.00 | 1.60 | 0.08 | 88 | 1012.4 | |
| 20260506010532 | 54 | 0.0 | 0.0 | 0.00 | 1.60 | 0.08 | 88 | 1012.4 | |
| 20260506005534 | 54 | 0.0 | 0.0 | 0.00 | 1.60 | 0.08 | 88 | 1012.4 | |
| 20260506004546 | 53 | 180 | 0.0 | 2.0 | 0.00 | 1.60 | 0.08 | 88 | 1012.4 |
| 20260506003524 | 53 | 0.0 | 1.0 | 0.00 | 1.60 | 0.08 | 88 | 1013.4 | |
| 20260506002521 | 53 | 0.0 | 0.0 | 0.00 | 1.60 | 0.08 | 88 | 1013.4 | |
| 20260506001525 | 53 | 0.0 | 0.0 | 0.04 | 1.60 | 0.08 | 88 | 1013.4 | |
| 20260506000535 | 53 | 0.0 | 0.0 | 0.04 | 1.60 | 0.08 | 87 | 1013.4 | |
| 20260505235532 | 54 | 0.0 | 0.0 | 0.04 | 1.60 | 0.08 | 87 | 1013.4 | |
| 20260505234548 | 54 | 0.0 | 0.0 | 0.08 | 1.60 | 0.08 | 87 | 1013.4 | |
| 20260505233606 | 54 | 180 | 0.0 | 3.0 | 0.08 | 1.60 | 0.08 | 87 | 1013.4 |
| 20260505232523 | 54 | 0.0 | 0.0 | 0.08 | 1.60 | 0.08 | 87 | 1013.4 | |
| 20260505231522 | 54 | 0.0 | 0.0 | 0.04 | 1.55 | 0.04 | 87 | 1013.4 | |
| 20260505230519 | 54 | 225 | 0.0 | 3.0 | 0.04 | 1.55 | 0.04 | 87 | 1013.4 |
| 20260505225531 | 54 | 204 | 0.0 | 3.0 | 0.04 | 1.55 | 0.04 | 87 | 1013.4 |
| 20260505224533 | 54 | 203 | 0.0 | 1.0 | 0.00 | 1.52 | 0.00 | 87 | 1013.4 |
| 20260505223547 | 54 | 0.0 | 0.0 | 0.00 | 1.52 | 0.00 | 87 | 1013.4 | |
| 20260505222530 | 54 | 0.0 | 0.0 | 0.00 | 1.52 | 0.00 | 87 | 1013.4 | |
| 20260505221525 | 54 | 0.0 | 0.0 | 0.00 | 1.52 | 0.00 | 87 | 1013.4 | |
| 20260505220522 | 54 | 0.0 | 0.0 | 0.00 | 1.52 | 0.00 | 87 | 1014.4 | |
| 20260505215519 | 54 | 0.0 | 0.0 | 0.00 | 1.52 | 1.52 | 86 | 1014.4 | |
| 20260505214541 | 54 | 0.0 | 0.0 | 0.00 | 1.52 | 1.52 | 86 | 1014.4 | |
| 20260505213529 | 54 | 0.0 | 0.0 | 0.00 | 1.52 | 1.52 | 86 | 1014.4 | |
| 20260505212611 | 54 | 0.0 | 0.0 | 0.00 | 1.52 | 1.52 | 86 | 1014.4 | |
| 20260505211520 | 54 | 165 | 2.0 | 4.0 | 0.00 | 1.52 | 1.52 | 86 | 1014.4 |
| 20260505210524 | 54 | 179 | 0.0 | 4.0 | 0.00 | 1.52 | 1.52 | 86 | 1014.4 |
| 20260505205621 | 54 | 180 | 0.0 | 3.0 | 0.00 | 1.52 | 1.52 | 85 | 1014.4 |
| 20260505204541 | 54 | 0.0 | 0.0 | 0.00 | 1.52 | 1.52 | 85 | 1014.4 | |
| 20260505203531 | 54 | 0.0 | 0.0 | 0.00 | 1.52 | 1.52 | 84 | 1014.4 | |
| 20260505202530 | 55 | 0.0 | 0.0 | 0.00 | 1.52 | 1.52 | 84 | 1013.7 | |
| 20260505201541 | 55 | 0.0 | 0.0 | 0.00 | 1.52 | 1.52 | 84 | 1013.4 | |
| 20260505200546 | 55 | 185 | 0.0 | 3.0 | 0.00 | 1.52 | 1.52 | 83 | 1013.4 |
| 20260505195524 | 55 | 180 | 0.0 | 1.0 | 0.00 | 1.52 | 1.52 | 83 | 1013.4 |
| 20260505194522 | 56 | 180 | 0.0 | 3.0 | 0.00 | 1.52 | 1.52 | 83 | 1013.4 |
| 20260505193520 | 56 | 199 | 0.0 | 3.0 | 0.00 | 1.52 | 1.52 | 82 | 1013.4 |
| 20260505192532 | 56 | 228 | 1.0 | 5.0 | 0.00 | 1.52 | 1.52 | 82 | 1013.4 |
| 20260505191541 | 56 | 176 | 1.0 | 4.0 | 0.00 | 1.52 | 1.52 | 81 | 1013.4 |
| 20260505190523 | 56 | 0.0 | 1.0 | 0.00 | 1.52 | 1.52 | 81 | 1013.4 | |
| 20260505185526 | 57 | 146 | 0.0 | 1.0 | 0.00 | 1.52 | 1.52 | 80 | 1013.4 |
| 20260505184524 | 57 | 0.0 | 0.0 | 0.00 | 1.52 | 1.52 | 80 | 1013.4 | |
| 20260505183523 | 57 | 0.0 | 0.0 | 0.00 | 1.52 | 1.52 | 79 | 1013.4 | |
| 20260505182522 | 57 | 0.0 | 0.0 | 0.04 | 1.52 | 1.52 | 80 | 1013.4 | |
| 20260505181523 | 57 | 0.0 | 0.0 | 0.04 | 1.52 | 1.52 | 80 | 1013.4 | |
| 20260505180533 | 57 | 338 | 0.0 | 2.0 | 0.42 | 1.52 | 1.52 | 80 | 1013.4 |
| 20260505175528 | 57 | 286 | 0.0 | 4.0 | 1.43 | 1.52 | 1.52 | 80 | 1014.2 |
| 20260505174546 | 57 | 316 | 4.0 | 8.0 | 1.43 | 1.52 | 1.52 | 80 | 1014.4 |
| 20260505173527 | 57 | 0.0 | 0.0 | 1.43 | 1.52 | 1.52 | 80 | 1013.4 | |
| 20260505172522 | 57 | 329 | 2.0 | 8.0 | 1.43 | 1.47 | 1.47 | 79 | 1013.4 |
| 20260505171541 | 57 | 271 | 1.0 | 4.0 | 1.47 | 1.47 | 1.47 | 79 | 1013.4 |
| 20260505170532 | 57 | 284 | 2.0 | 8.0 | 1.10 | 1.10 | 1.10 | 78 | 1013.4 |
| 20260505165530 | 57 | 245 | 5.0 | 9.0 | 0.08 | 0.08 | 0.08 | 79 | 1013.4 |
| 20260505164529 | 57 | 256 | 7.0 | 12.0 | 0.08 | 0.08 | 0.08 | 78 | 1013.4 |
| 20260505163528 | 57 | 240 | 10.0 | 16.0 | 0.08 | 0.08 | 0.08 | 78 | 1013.4 |
| 20260505162529 | 58 | 237 | 12.0 | 18.0 | 0.04 | 0.04 | 0.04 | 74 | 1012.7 |